NIMBUS 2 DEB, 28202

Orbit data source: Space-Track

NIMBUS 2 DEB, 28202 is space debris in SSO originally from a launch on Sun, 15 May 1966 UTC launched from the Air Force Western Test Range (AFWTR). Debris objects in space refer to the collection of defunct objects orbiting the Earth. Examples of debris include non-operational satellites, rocket bodies, and fragments generated from explosions, collisions, or faulty payload assembly.

Loading next visibility...
Identifier
28202, 1966-040Q
Orbit
SSO
Country
Flag of USUS
Related business
Manufacturer
Unknown
Mission
Spacecraft
Bus & Motor
Unknown
Mass
Unknown
Launch date (UTC)
1966-05-15 (60 years ago)
Launch vehicle
Unknown
Launch site
Air Force Western Test Range (AFWTR)
Object type
Payload
Rocket body
Debris
Shape & HBR
Unknown shape, 0.1 m
Radar Cross Section
Small (<0.1 m²)

Expand to show TLE details & history
Last TLE update: 4 days ago

TLE from 4 days ago
0 NIMBUS 2 DEB
1 28202U 66040Q   26169.93175838  .00001928  00000-0  24320-2 0  9991
2 28202 100.1969  60.8124 0018582 263.3150 113.1874 13.65190500633059
Epoch: 2026-06-18T22:21Z
TLE epoch observation values (Epoch: 2026-06-18T22:21:43.924Z)
Latitude
16.41157°
Longitude
175.1902°
Altitude
1,024.468 km
Speed
7.338 km/s
True Right ascension
03h 51m 09s
True Declination
16° 19' 19"
Sunlit
Object was in daylight at epoch
Visualization orbit readout
Latitude
Unknown
Longitude
Unknown
Altitude
Unknown
Speed
Unknown
Apparent Right ascension
Unknown
Apparent Declination
Unknown
Sunlit
N/A
Visualization observer readout
Local Sidereal Time
00:50:07
Azimuth
Unknown
Elevation
Unknown
Doppler factor
Unknown
Orbital elements
Apogee altitude
1,027.932 km
Perigee altitude
1,000.459 km
Semi-major axis
7,392.333 km
Eccentricity
0.00186
Inclination
100.1969°
RAAN
60.8124°
Arg. of periapsis
263.315°
True anomaly
113.38295°
Mean anomaly
113.1874°
Eccentric anomaly
113.2852°
Mean motion
3.41484 °/min
Orbital period
105.42 mins
BSTAR
0.002432
Loading maneuver chart data...
Computing Atmospheric mass density...
Loading historical data...
Loading historical data...
Loading historical data...
Loading historical data...
Loading historical data...
Loading historical data...
Loading historical data...

Documentation

Showing up to 5 results
|